When you browse on this site, cookies collect data to enhance your experience and personalize the content and advertising you see.
Visit our Privacy Policy to learn more. By continuing to use the site, you agree to this use of cookies and data.
  • In Lithuania
  • List of Countries
  • For 7 days
  • Water Temperature
  • Satellite Maps
  • Weather Map
  • Weather Widgets
  • user-avatar
    Login

    Hourly Weather Neuquén

    Today, 20 July, Saturday

    Time Temperature Precipitation Wind Pressure Humidity
    00:00 +7°C° 0 mm 3 mps 731 mmHg 55%
    01:00 +6°C° 0 mm 4 mps 730 mmHg 54%
    02:00 +7°C° 0 mm 3 mps 730 mmHg 53%
    03:00 +7°C° 0 mm 3 mps 729 mmHg 53%
    04:00 +7°C° 0 mm 3 mps 729 mmHg 53%
    05:00 +7°C° 0 mm 3 mps 728 mmHg 54%
    06:00 +7°C° 0 mm 3 mps 727 mmHg 55%
    07:00 +7°C° 0 mm 3 mps 726 mmHg 56%
    08:00 +8°C° 0 mm 4 mps 726 mmHg 53%
    09:00 +10°C° 0 mm 4 mps 725 mmHg 49%
    10:00 +11°C° 0 mm 4 mps 725 mmHg 46%
    11:00 +12°C° 0 mm 5 mps 723 mmHg 44%
    12:00 +13°C° 0 mm 6 mps 722 mmHg 42%
    13:00 +14°C° 0 mm 7 mps 720 mmHg 40%
    14:00 +14°C° 0 mm 6 mps 720 mmHg 42%
    15:00 +14°C° 0 mm 6 mps 719 mmHg 43%
    16:00 +14°C° 0 mm 5 mps 718 mmHg 44%
    17:00 +14°C° 0 mm 5 mps 718 mmHg 47%
    18:00 +13°C° 0 mm 5 mps 718 mmHg 50%
    19:00 +13°C° 0 mm 5 mps 718 mmHg 53%
    20:00 +11°C° 0 mm 6 mps 718 mmHg 55%
    21:00 +10°C° 0 mm 7 mps 719 mmHg 57%
    22:00 +10°C° 0 mm 8 mps 719 mmHg 59%
    23:00 +9°C° 0 mm 7 mps 720 mmHg 58%

    Tomorrow, 21 July, Sunday

    Time Temperature Precipitation Wind Pressure Humidity
    00:00 +9°C° 0 mm 6 mps 720 mmHg 58%
    01:00 +8°C° 0 mm 5 mps 721 mmHg 58%
    02:00 +7°C° 0 mm 8 mps 721 mmHg 50%
    03:00 +6°C° 0 mm 11 mps 722 mmHg 43%
    04:00 +5°C° 0 mm 14 mps 723 mmHg 36%
    05:00 +5°C° 0 mm 13 mps 723 mmHg 37%
    06:00 +4°C° 0 mm 13 mps 723 mmHg 39%
    07:00 +4°C° 0 mm 12 mps 723 mmHg 40%
    08:00 +5°C° 0 mm 14 mps 724 mmHg 36%
    09:00 +6°C° 0 mm 17 mps 725 mmHg 33%
    10:00 +7°C° 0 mm 19 mps 725 mmHg 30%
    11:00 +9°C° 0 mm 18 mps 725 mmHg 28%
    12:00 +9°C° 0 mm 17 mps 725 mmHg 26%
    13:00 +10°C° 0 mm 16 mps 726 mmHg 24%
    14:00 +9°C° 0 mm 14 mps 727 mmHg 25%
    15:00 +9°C° 0 mm 13 mps 727 mmHg 26%
    16:00 +8°C° 0 mm 11 mps 728 mmHg 27%
    17:00 +8°C° 0 mm 10 mps 729 mmHg 31%
    18:00 +7°C° 0 mm 10 mps 729 mmHg 36%
    19:00 +6°C° 0 mm 9 mps 730 mmHg 40%
    20:00 +5°C° 0 mm 8 mps 731 mmHg 43%
    21:00 +5°C° 0 mm 7 mps 732 mmHg 45%
    22:00 +5°C° 0 mm 5 mps 733 mmHg 47%
    23:00 +4°C° 0 mm 6 mps 733 mmHg 46%

    Day after tomorrow, 22 July, Monday

    Time Temperature Precipitation Wind Pressure Humidity
    00:00 +3°C° 0 mm 6 mps 734 mmHg 46%
    01:00 +3°C° 0 mm 6 mps 734 mmHg 45%
    02:00 +3°C° 0 mm 5 mps 735 mmHg 47%
    03:00 +2°C° 0 mm 5 mps 735 mmHg 48%
    04:00 +3°C° 0 mm 4 mps 736 mmHg 49%
    05:00 +1°C° 0 mm 4 mps 736 mmHg 50%
    06:00 +1°C° 0 mm 4 mps 736 mmHg 52%
    07:00 +1°C° 0 mm 4 mps 736 mmHg 53%
    08:00 +3°C° 0 mm 5 mps 737 mmHg 47%
    09:00 +5°C° 0 mm 6 mps 738 mmHg 41%
    10:00 +6°C° 0 mm 8 mps 738 mmHg 36%
    11:00 +7°C° 0 mm 8 mps 738 mmHg 33%
    12:00 +7°C° 0 mm 8 mps 738 mmHg 31%
    13:00 +9°C° 0 mm 8 mps 737 mmHg 29%
    14:00 +9°C° 0 mm 7 mps 737 mmHg 30%
    15:00 +8°C° 0 mm 6 mps 738 mmHg 30%
    16:00 +8°C° 0 mm 5 mps 738 mmHg 31%
    17:00 +7°C° 0 mm 5 mps 738 mmHg 35%
    18:00 +6°C° 0 mm 5 mps 738 mmHg 40%
    19:00 +5°C° 0 mm 4 mps 739 mmHg 44%
    20:00 +5°C° 0 mm 4 mps 739 mmHg 45%
    21:00 +5°C° 0 mm 4 mps 739 mmHg 45%
    22:00 +4°C° 0 mm 4 mps 739 mmHg 46%
    23:00 +4°C° 0 mm 4 mps 739 mmHg 47%

    23 July, Tuesday

    Time Temperature Precipitation Wind Pressure Humidity
    00:00 +4°C° 0 mm 3 mps 739 mmHg 49%
    01:00 +3°C° 0 mm 3 mps 739 mmHg 50%
    02:00 +3°C° 0 mm 3 mps 739 mmHg 52%
    03:00 +2°C° 0 mm 3 mps 739 mmHg 54%
    04:00 +2°C° 0 mm 3 mps 739 mmHg 56%
    05:00 +2°C° 0 mm 3 mps 740 mmHg 58%
    06:00 +2°C° 0 mm 3 mps 740 mmHg 60%
    07:00 +2°C° 0 mm 3 mps 740 mmHg 62%
    08:00 +3°C° 0 mm 3 mps 741 mmHg 56%
    09:00 +5°C° 0 mm 4 mps 741 mmHg 51%
    10:00 +7°C° 0 mm 4 mps 742 mmHg 46%
    11:00 +7°C° 0 mm 4 mps 741 mmHg 42%
    12:00 +8°C° 0 mm 4 mps 741 mmHg 39%
    13:00 +10°C° 0 mm 4 mps 741 mmHg 36%
    14:00 +10°C° 0 mm 4 mps 741 mmHg 37%
    15:00 +10°C° 0 mm 3 mps 741 mmHg 37%
    16:00 +9°C° 0 mm 3 mps 741 mmHg 38%
    17:00 +8°C° 0 mm 3 mps 742 mmHg 42%
    18:00 +7°C° 0 mm 2 mps 742 mmHg 45%
    19:00 +6°C° 0 mm 2 mps 742 mmHg 49%
    20:00 +6°C° 0 mm 2 mps 743 mmHg 50%
    21:00 +6°C° 0 mm 1 mps 743 mmHg 52%
    22:00 +5°C° 0 mm 0 mps 743 mmHg 53%
    23:00 +5°C° 0 mm 1 mps 743 mmHg 53%

    24 July, Wednesday

    Time Temperature Precipitation Wind Pressure Humidity
    00:00 +5°C° 0 mm 1 mps 743 mmHg 54%
    01:00 +5°C° 0 mm 1 mps 744 mmHg 54%
    02:00 +5°C° 0 mm 1 mps 744 mmHg 54%
    03:00 +4°C° 0 mm 1 mps 744 mmHg 55%
    04:00 +4°C° 0 mm 1 mps 743 mmHg 55%
    05:00 +4°C° 0 mm 1 mps 744 mmHg 56%
    06:00 +4°C° 0 mm 1 mps 744 mmHg 56%
    07:00 +2°C° 0 mm 2 mps 744 mmHg 56%
    08:00 +5°C° 0 mm 2 mps 744 mmHg 49%
    09:00 +7°C° 0 mm 3 mps 744 mmHg 41%
    10:00 +8°C° 0 mm 4 mps 744 mmHg 34%
    11:00 +10°C° 0 mm 4 mps 744 mmHg 31%
    12:00 +11°C° 0 mm 4 mps 743 mmHg 28%
    13:00 +12°C° 0 mm 5 mps 742 mmHg 25%
    14:00 +12°C° 0 mm 4 mps 742 mmHg 26%
    15:00 +12°C° 0 mm 4 mps 742 mmHg 27%
    16:00 +12°C° 0 mm 3 mps 741 mmHg 27%
    17:00 +11°C° 0 mm 4 mps 741 mmHg 29%
    18:00 +10°C° 0 mm 4 mps 741 mmHg 31%
    19:00 +8°C° 0 mm 4 mps 741 mmHg 32%
    20:00 +8°C° 0 mm 4 mps 741 mmHg 33%
    21:00 +7°C° 0 mm 4 mps 741 mmHg 34%
    22:00 +7°C° 0 mm 4 mps 740 mmHg 35%
    23:00 +6°C° 0 mm 4 mps 740 mmHg 37%

    25 July, Thursday

    Time Temperature Precipitation Wind Pressure Humidity
    00:00 +6°C° 0 mm 4 mps 740 mmHg 38%
    01:00 +5°C° 0 mm 4 mps 739 mmHg 40%
    02:00 +5°C° 0 mm 4 mps 739 mmHg 42%
    03:00 +5°C° 0 mm 4 mps 738 mmHg 44%
    04:00 +4°C° 0 mm 4 mps 738 mmHg 46%
    05:00 +4°C° 0 mm 4 mps 738 mmHg 47%
    06:00 +3°C° 0 mm 3 mps 738 mmHg 48%
    07:00 +3°C° 0 mm 3 mps 738 mmHg 48%
    08:00 +5°C° 0 mm 3 mps 738 mmHg 43%
    09:00 +7°C° 0 mm 4 mps 738 mmHg 37%
    10:00 +8°C° 0 mm 4 mps 738 mmHg 32%
    11:00 +11°C° 0 mm 3 mps 737 mmHg 29%
    12:00 +12°C° 0 mm 3 mps 737 mmHg 27%
    13:00 +14°C° 0 mm 2 mps 736 mmHg 25%
    14:00 +12°C° 0 mm 3 mps 736 mmHg 26%
    15:00 +12°C° 0 mm 3 mps 736 mmHg 28%
    16:00 +12°C° 0 mm 3 mps 736 mmHg 29%
    17:00 +12°C° 0 mm 2 mps 736 mmHg 30%
    18:00 +10°C° 0 mm 2 mps 737 mmHg 31%
    19:00 +9°C° 0 mm 2 mps 737 mmHg 32%
    20:00 +9°C° 0 mm 2 mps 737 mmHg 34%
    21:00 +8°C° 0 mm 2 mps 738 mmHg 35%
    22:00 +7°C° 0 mm 2 mps 738 mmHg 36%
    23:00 +7°C° 0 mm 2 mps 738 mmHg 38%
    Show more